Zurück zum Katalog

EUTE 2-F4

AktivKommunikationGEO
NORAD 22028·PAYLOAD·🇪🇺 EU

Gestartet Jul 9, 1992 von Guiana Space Centre

Loading…

TLE

AktuellSource: Space-Track

Epoche: Sep 14, 2026, 20:58 UTC

1 22028U 92041B   26257.87390052  .00000042  00000-0  00000-0 0  9992
2 22028  14.7804   4.7434 0008370 265.1420 107.9517  0.99074907 47646

Verfolge EUTE 2-F4 in Echtzeit mit AllMySat

Download on the App Store